When you browse on this site, cookies collect data to enhance your experience and personalize the content and advertising you see.
Visit our Privacy Policy to learn more. By continuing to use the site, you agree to this use of cookies and data.
  • In Hungary
  • List of Countries
  • For 7 days
  • Water Temperature
  • Satellite Maps
  • Weather Map
  • News
  • Weather Widgets
  • user-avatar
    Login

    Hourly Weather Perederijeve

    Today, 11 December, Tuesday

    Time Temperature Precipitation Wind Pressure Humidity
    00:00 +1°C° 0.2 mm 5 mps 744 mmHg 96%
    01:00 +1°C° 0.1 mm 5 mps 744 mmHg 96%
    02:00 +1°C° 0.1 mm 5 mps 744 mmHg 96%
    03:00 +1°C° 0.1 mm 4 mps 744 mmHg 97%
    04:00 +1°C° 0 mm 4 mps 744 mmHg 96%
    05:00 +1°C° 0 mm 4 mps 744 mmHg 96%
    06:00 +1°C° 0 mm 4 mps 744 mmHg 96%
    07:00 +1°C° 0 mm 4 mps 744 mmHg 96%
    08:00 +1°C° 0 mm 4 mps 744 mmHg 96%
    09:00 +1°C° 0 mm 4 mps 744 mmHg 96%
    10:00 +1°C° 0 mm 4 mps 744 mmHg 96%
    11:00 +1°C° 0 mm 4 mps 744 mmHg 95%
    12:00 +1°C° 0 mm 5 mps 744 mmHg 95%
    13:00 +1°C° 0.2 mm 5 mps 744 mmHg 94%
    14:00 +1°C° 0.2 mm 6 mps 743 mmHg 94%
    15:00 +1°C° 0.2 mm 6 mps 743 mmHg 93%
    16:00 +1°C° 0.8 mm 6 mps 743 mmHg 93%
    17:00 +1°C° 0.8 mm 6 mps 743 mmHg 93%
    18:00 +1°C° 0.8 mm 6 mps 743 mmHg 93%
    19:00 +2°C° 0.7 mm 7 mps 743 mmHg 93%
    20:00 +2°C° 0.7 mm 7 mps 743 mmHg 94%
    21:00 +1°C° 0.7 mm 8 mps 742 mmHg 94%
    22:00 +2°C° 0.9 mm 8 mps 742 mmHg 94%
    23:00 +2°C° 0.9 mm 8 mps 742 mmHg 94%

    Tomorrow, 12 December, Wednesday

    Time Temperature Precipitation Wind Pressure Humidity
    00:00 +3°C° 0.9 mm 7 mps 742 mmHg 94%
    01:00 +2°C° 0.1 mm 8 mps 742 mmHg 93%
    02:00 +2°C° 0.1 mm 8 mps 742 mmHg 92%
    03:00 +4°C° 0.1 mm 8 mps 742 mmHg 91%
    04:00 +3°C° 0.1 mm 7 mps 742 mmHg 90%
    05:00 +3°C° 0.1 mm 7 mps 741 mmHg 90%
    06:00 +3°C° 0.1 mm 6 mps 741 mmHg 89%
    07:00 +3°C° 0.1 mm 7 mps 741 mmHg 88%
    08:00 +3°C° 0.1 mm 7 mps 741 mmHg 86%
    09:00 +1°C° 0.1 mm 8 mps 742 mmHg 84%
    10:00 +1°C° 0.1 mm 8 mps 742 mmHg 84%
    11:00 +1°C° 0.1 mm 9 mps 742 mmHg 83%
    12:00 +1°C° 0.1 mm 9 mps 742 mmHg 82%
    13:00 +1°C° 0.1 mm 9 mps 743 mmHg 82%
    14:00 +1°C° 0.1 mm 8 mps 743 mmHg 82%
    15:00 +1°C° 0.1 mm 8 mps 743 mmHg 83%
    16:00 0°C° 0 mm 7 mps 744 mmHg 83%
    17:00 0°C° 0 mm 7 mps 744 mmHg 83%
    18:00 0°C° 0 mm 7 mps 745 mmHg 83%
    19:00 -1°C° 0 mm 6 mps 745 mmHg 84%
    20:00 0°C° 0 mm 5 mps 746 mmHg 86%
    21:00 -1°C° 0 mm 4 mps 746 mmHg 87%
    22:00 -1°C° 0 mm 4 mps 747 mmHg 88%
    23:00 0°C° 0 mm 3 mps 747 mmHg 89%

    Day after tomorrow, 13 December, Thursday

    Time Temperature Precipitation Wind Pressure Humidity
    00:00 -1°C° 0 mm 3 mps 748 mmHg 90%
    01:00 -1°C° 0 mm 3 mps 748 mmHg 90%
    02:00 -1°C° 0 mm 3 mps 749 mmHg 91%
    03:00 -1°C° 0 mm 2 mps 749 mmHg 91%
    04:00 -1°C° 0 mm 2 mps 749 mmHg 91%
    05:00 -1°C° 0 mm 2 mps 750 mmHg 91%
    06:00 -1°C° 0 mm 2 mps 750 mmHg 91%
    07:00 -1°C° 0 mm 2 mps 750 mmHg 90%
    08:00 -1°C° 0 mm 2 mps 751 mmHg 88%
    09:00 -1°C° 0 mm 2 mps 752 mmHg 87%
    10:00 0°C° 0 mm 3 mps 752 mmHg 81%
    11:00 +1°C° 0 mm 3 mps 752 mmHg 74%
    12:00 +2°C° 0 mm 3 mps 752 mmHg 68%
    13:00 +2°C° 0 mm 3 mps 753 mmHg 68%
    14:00 +2°C° 0 mm 3 mps 753 mmHg 69%
    15:00 +3°C° 0 mm 2 mps 753 mmHg 69%
    16:00 +2°C° 0 mm 2 mps 754 mmHg 73%
    17:00 +1°C° 0 mm 2 mps 754 mmHg 77%
    18:00 +1°C° 0 mm 2 mps 754 mmHg 81%
    19:00 +1°C° 0 mm 2 mps 755 mmHg 83%
    20:00 -1°C° 0 mm 2 mps 755 mmHg 85%
    21:00 -1°C° 0 mm 2 mps 755 mmHg 87%
    22:00 -1°C° 0 mm 2 mps 755 mmHg 88%
    23:00 -1°C° 0 mm 2 mps 755 mmHg 88%

    14 December, Friday

    Time Temperature Precipitation Wind Pressure Humidity
    00:00 -1°C° 0 mm 2 mps 755 mmHg 89%
    01:00 -1°C° 0 mm 2 mps 756 mmHg 89%
    02:00 -1°C° 0 mm 2 mps 756 mmHg 89%
    03:00 -1°C° 0 mm 2 mps 756 mmHg 88%
    04:00 -1°C° 0 mm 2 mps 756 mmHg 88%
    05:00 -1°C° 0 mm 2 mps 756 mmHg 89%
    06:00 -1°C° 0 mm 2 mps 755 mmHg 89%
    07:00 -1°C° 0 mm 2 mps 756 mmHg 88%
    08:00 -1°C° 0 mm 2 mps 756 mmHg 88%
    09:00 -1°C° 0 mm 2 mps 756 mmHg 87%
    10:00 +1°C° 0 mm 2 mps 756 mmHg 83%
    11:00 +1°C° 0 mm 3 mps 756 mmHg 79%
    12:00 +2°C° 0 mm 3 mps 756 mmHg 74%
    13:00 +3°C° 0 mm 2 mps 756 mmHg 75%
    14:00 +3°C° 0 mm 2 mps 755 mmHg 75%
    15:00 +3°C° 0 mm 2 mps 755 mmHg 75%
    16:00 +2°C° 0 mm 2 mps 755 mmHg 79%
    17:00 +1°C° 0 mm 2 mps 755 mmHg 82%
    18:00 +1°C° 0 mm 1 mps 755 mmHg 85%
    19:00 +1°C° 0 mm 1 mps 756 mmHg 85%
    20:00 +1°C° 0 mm 1 mps 756 mmHg 85%
    21:00 +1°C° 0 mm 1 mps 756 mmHg 85%
    22:00 +1°C° 0 mm 1 mps 756 mmHg 84%
    23:00 +1°C° 0 mm 1 mps 756 mmHg 84%

    15 December, Saturday

    Time Temperature Precipitation Wind Pressure Humidity
    00:00 +1°C° 0 mm 1 mps 756 mmHg 83%
    01:00 +1°C° 0 mm 1 mps 756 mmHg 83%
    02:00 +1°C° 0 mm 1 mps 757 mmHg 83%
    03:00 +1°C° 0 mm 1 mps 757 mmHg 82%
    04:00 0°C° 0 mm 1 mps 757 mmHg 82%
    05:00 0°C° 0 mm 1 mps 757 mmHg 82%
    06:00 0°C° 0 mm 1 mps 757 mmHg 82%
    07:00 0°C° 0 mm 1 mps 758 mmHg 82%
    08:00 0°C° 0 mm 1 mps 758 mmHg 82%
    09:00 0°C° 0 mm 1 mps 758 mmHg 82%
    10:00 +1°C° 0 mm 1 mps 759 mmHg 78%
    11:00 +2°C° 0 mm 1 mps 759 mmHg 74%
    12:00 +2°C° 0 mm 0 mps 759 mmHg 70%
    13:00 +2°C° 0 mm 0 mps 759 mmHg 71%
    14:00 +2°C° 0 mm 0 mps 759 mmHg 71%
    15:00 +2°C° 0 mm 0 mps 759 mmHg 72%
    16:00 +2°C° 0 mm 1 mps 760 mmHg 76%
    17:00 +1°C° 0 mm 1 mps 760 mmHg 80%
    18:00 +1°C° 0 mm 1 mps 760 mmHg 83%
    19:00 0°C° 0 mm 1 mps 760 mmHg 84%
    20:00 0°C° 0 mm 1 mps 761 mmHg 85%
    21:00 0°C° 0 mm 1 mps 761 mmHg 85%
    22:00 0°C° 0 mm 1 mps 761 mmHg 86%
    23:00 0°C° 0 mm 1 mps 761 mmHg 86%

    16 December, Sunday

    Time Temperature Precipitation Wind Pressure Humidity
    00:00 0°C° 0 mm 1 mps 761 mmHg 86%
    01:00 -1°C° 0 mm 1 mps 761 mmHg 86%
    02:00 -3°C° 0 mm 2 mps 761 mmHg 86%
    03:00 -3°C° 0 mm 2 mps 761 mmHg 86%
    04:00 -3°C° 0 mm 2 mps 761 mmHg 85%
    05:00 -3°C° 0 mm 2 mps 761 mmHg 85%
    06:00 -3°C° 0 mm 2 mps 761 mmHg 84%
    07:00 -4°C° 0 mm 3 mps 761 mmHg 84%
    08:00 -4°C° 0 mm 3 mps 761 mmHg 84%
    09:00 -4°C° 0 mm 3 mps 762 mmHg 83%
    10:00 -2°C° 0 mm 3 mps 761 mmHg 79%
    11:00 -2°C° 0 mm 3 mps 761 mmHg 76%
    12:00 -1°C° 0 mm 3 mps 761 mmHg 72%
    13:00 -2°C° 0 mm 4 mps 761 mmHg 72%
    14:00 -2°C° 0 mm 4 mps 761 mmHg 72%
    15:00 -2°C° 0 mm 4 mps 760 mmHg 73%
    16:00 -3°C° 0 mm 4 mps 760 mmHg 76%
    17:00 -3°C° 0 mm 4 mps 760 mmHg 79%
    18:00 -5°C° 0 mm 5 mps 760 mmHg 83%
    19:00 -5°C° 0 mm 5 mps 760 mmHg 82%
    20:00 -5°C° 0 mm 5 mps 760 mmHg 82%
    21:00 -5°C° 0 mm 5 mps 760 mmHg 82%
    22:00 -5°C° 0 mm 5 mps 760 mmHg 81%
    23:00 -5°C° 0 mm 5 mps 760 mmHg 80%
    Show more